[[{"header":{"parameterUnit":"m.s-1","parameterCategory":1,"la1":30.2991,"la2":30.254,"lo1":-89.0895,"lo2":-89.0444,"dy":0.0017,"dx":0.0017,"nx":28,"ny":28,"refTime":"2025-12-22T09:00:00:Z","depth":0,"parameterNumber":2,"parameterNumberName":"U-component_of_WINDS"},"data":[0,0,0,0,0,0,0,0,0,0,0,0,0,0,0,0,0,0,0,0,0,0,0,0,0,0,0,0,0,0,0,0,0,0,0,0,0,0,0,0,0,0,0,0,0,0,0,0,0,0,0,0,0,0,0,0,0,0,-1.1153,-1.1154,0,-1.1192,-1.1192,-1.1193,-1.123,-1.1231,-1.1231,-1.1231,-1.1272,-1.1273,-1.1274,0,0,0,0,0,0,0,0,0,0,0,0,0,-1.1111,-1.1112,-1.1153,-1.1154,-1.1154,-1.1192,-1.1192,-1.1193,-1.123,-1.1231,-1.1231,-1.1232,-1.1272,-1.1273,-1.1274,0,0,0,0,0,0,0,0,0,0,0,0,0,-1.1138,-1.1112,-1.1153,-1.1177,-1.118,-1.1192,-1.1192,-1.1193,-1.123,-1.1231,-1.1231,-1.1232,-1.1272,-1.1273,-1.1274,-1.1265,0,0,-1.1277,-1.1277,0,0,0,0,0,0,0,0,-1.1136,-1.1139,-1.1173,-1.1175,-1.1178,-1.1207,-1.1193,-1.1217,-1.123,-1.1211,-1.1232,-1.1232,-1.125,-1.1253,-1.1259,-1.1267,-1.1269,-1.1277,-1.1277,-1.1278,-1.1278,0,0,0,0,0,0,0,-1.1134,-1.1138,-1.1168,-1.1173,-1.1177,-1.1186,-1.1191,-1.1197,-1.1226,-1.1213,-1.1215,-1.1219,-1.1252,-1.1258,-1.126,-1.127,-1.1277,-1.1278,-1.1278,-1.1279,-1.1272,-1.1271,0,0,0,0,0,0,-1.1129,-1.1136,-1.1167,-1.117,-1.1159,-1.1186,-1.1191,-1.1197,-1.1226,-1.1231,-1.1219,-1.1221,-1.1256,-1.1259,-1.1261,-1.1252,-1.1278,-1.1279,-1.1279,-1.1272,-1.1271,-1.1271,0,0,0,0,0,0,-1.1128,-1.1131,-1.1166,-1.1154,-1.1159,-1.1186,-1.1192,-1.1197,-1.1203,-1.1231,-1.1236,-1.1219,-1.1256,-1.126,-1.1264,-1.1254,-1.1279,-1.128,-1.1273,-1.1272,-1.1271,-1.1233,0,0,0,0,0,0,-1.1126,-1.1131,-1.1128,-1.1153,-1.1159,-1.1167,-1.1192,-1.1198,-1.1205,-1.1208,-1.1233,-1.1238,-1.1257,-1.1262,-1.1265,-1.1256,-1.1281,-1.1274,-1.1273,-1.1271,-1.1236,-1.1231,-1.1227,0,0,0,0,0,-1.1125,-1.1116,-1.1127,-1.1131,-1.1156,-1.1166,-1.117,-1.1192,-1.1204,-1.1201,-1.1218,-1.1237,-1.1255,-1.1262,-1.1265,-1.1256,-1.1275,-1.1273,-1.1271,-1.1237,-1.1232,-1.1227,0,0,0,0,0,0,-1.109,-1.112,-1.1133,-1.1132,-1.1146,-1.1173,-1.117,-1.1186,-1.1197,-1.12,-1.1228,-1.1233,-1.1233,-1.1245,-1.1253,-1.1249,-1.1267,-1.1266,-1.124,-1.1235,-1.1231,-1.1227,-1.1282,0,0,0,0,0,-1.1082,-1.1087,-1.1114,-1.1111,-1.1117,-1.1142,-1.1148,-1.1163,-1.1179,-1.1186,-1.1203,-1.1218,-1.1227,-1.1232,-1.1242,-1.1238,-1.1243,-1.1234,-1.1229,-1.1226,-1.1224,-1.1221,-1.1216,-1.1265,-1.1265,-1.1265,0,0,-1.1066,-1.1083,-1.1085,-1.1104,-1.1117,-1.1122,-1.1147,-1.1152,-1.1155,-1.1187,-1.119,-1.1204,-1.1222,-1.1221,-1.1222,-1.1231,-1.1212,-1.1224,-1.1221,-1.1221,-1.1218,-1.1214,-1.1209,-1.1264,-1.1264,-1.1264,0,0,-1.1038,-1.1053,-1.1051,-1.1063,-1.1081,-1.1098,-1.1097,-1.1121,-1.1131,-1.1135,-1.1158,-1.1163,-1.1178,-1.1189,-1.1197,-1.1173,-1.1189,-1.1175,-1.1153,-1.1149,-1.1145,-1.1142,-1.1131,-1.1127,-1.1174,-1.1174,-1.1174,0,-1.1016,-1.1024,-1.1048,-1.105,-1.1057,-1.1085,-1.1083,-1.1094,-1.1115,-1.1119,-1.113,-1.1148,-1.1163,-1.1164,-1.1157,-1.1164,-1.1163,-1.1172,-1.1144,-1.1141,-1.1138,-1.1128,-1.1124,-1.1172,-1.1172,-1.1172,-1.1172,0,-1.0995,-1.1,-1.0996,-1.1014,-1.1021,-1.1021,-1.1045,-1.1049,-1.1064,-1.1079,-1.1082,-1.1101,-1.1113,-1.1115,-1.1131,-1.1118,-1.1123,-1.1139,-1.1157,-1.1131,-1.1122,-1.1118,-1.1169,-1.117,-1.117,-1.1171,0,0,-1.0946,-1.0977,-1.0975,-1.0982,-1.1004,-1.1009,-1.101,-1.1022,-1.1024,-1.1038,-1.1038,-1.105,-1.1063,-1.1072,-1.1089,-1.1086,-1.1063,-1.1102,-1.1103,-1.1092,-1.1047,-1.1034,-1.1029,-1.1075,-1.1074,-1.1074,-1.1045,0,-1.0921,-1.0923,-1.0945,-1.0941,-1.0945,-1.0971,-1.0972,-1.0985,-1.0999,-1.1005,-1.1021,-1.1027,-1.1046,-1.1051,-1.105,-1.1066,-1.1054,-1.1069,-1.1074,-1.1074,-1.1066,-1.1025,-1.1011,-1.0983,-1.1042,-1.1041,-1.1041,0,-1.0892,-1.0902,-1.0898,-1.0919,-1.0921,-1.0921,-1.0933,-1.0938,-1.0954,-1.0964,-1.0973,-1.0992,-1.0993,-1.1012,-1.1014,-1.1023,-1.1027,-1.1035,-1.1035,-1.1035,-1.1054,-1.1021,-1.0975,-1.097,-1.1036,-1.1036,-1.1037,0,-1.0854,-1.0867,-1.0866,-1.0872,-1.0897,-1.0896,-1.0906,-1.0922,-1.0927,-1.0938,-1.0941,-1.0952,-1.0957,-1.0965,-1.0986,-1.0998,-1.0984,-1.1006,-1.0992,-1.0991,-1.0986,-1.0986,-1.0938,-1.0992,-1.0992,-1.0993,-1.0993,0,-1.0822,-1.0819,-1.0849,-1.0848,-1.0844,-1.0869,-1.0864,-1.0877,-1.0891,-1.0892,-1.0917,-1.0918,-1.0946,-1.095,-1.0967,-1.0964,-1.0967,-1.0975,-1.0979,-1.0971,-1.097,-1.0973,-1.0974,-1.0991,-1.0992,-1.0992,-1.0992,0,-1.0779,-1.0799,-1.0799,-1.0822,-1.0827,-1.0823,-1.0843,-1.0842,-1.0858,-1.0859,-1.0861,-1.0885,-1.0891,-1.0913,-1.0924,-1.0935,-1.0927,-1.0936,-1.0921,-1.0923,-1.0907,-1.0907,-1.0857,-1.0851,-1.0912,-1.0911,-1.0911,0,-1.0756,-1.0754,-1.0775,-1.0778,-1.0787,-1.0791,-1.0796,-1.082,-1.0824,-1.084,-1.0837,-1.0845,-1.0852,-1.086,-1.0878,-1.0887,-1.0895,-1.0877,-1.0896,-1.0888,-1.0892,-1.089,-1.0889,-1.0872,-1.0871,-1.087,-1.087,0,-1.0713,-1.0723,-1.0729,-1.0738,-1.0743,-1.0751,-1.0761,-1.0762,-1.0789,-1.0792,-1.0797,-1.0803,-1.0814,-1.082,-1.0831,-1.0842,-1.0859,-1.0864,-1.0861,-1.0852,-1.0842,-1.0844,-1.0907,-1.0864,-1.0865,-1.0865,-1.0866,-1.0866,-1.0678,-1.0676,-1.069,-1.0696,-1.0706,-1.0714,-1.0714,-1.0729,-1.0734,-1.0744,-1.0758,-1.0761,-1.0775,-1.0792,-1.08,-1.0803,-1.0813,-1.0809,-1.0808,-1.0806,-1.0801,-1.0843,-1.0806,-1.0806,-1.0806,-1.0806,-1.0806,0,-1.0635,-1.0645,-1.0649,-1.0662,-1.0665,-1.0682,-1.0693,-1.0695,-1.0697,-1.0709,-1.0715,-1.072,-1.0726,-1.0745,-1.0752,-1.0751,-1.0759,-1.0752,-1.0751,-1.0752,-1.0793,-1.0793,-1.0745,-1.0745,-1.0745,-1.0745,-1.0745,-1.0745,-1.0612,-1.0609,-1.062,-1.0621,-1.0632,-1.0634,-1.0639,-1.0646,-1.0655,-1.066,-1.0665,-1.0676,-1.069,-1.0699,-1.0705,-1.071,-1.071,-1.07,-1.0707,-1.0744,-1.075,-1.0756,-1.0756,-1.0701,-1.07,-1.0667,-1.0666,-1.0666]},{"header":{"parameterUnit":"m.s-1","parameterCategory":1,"la1":30.2991,"la2":30.254,"lo1":-89.0895,"lo2":-89.0444,"dy":0.0017,"dx":0.0017,"nx":28,"ny":28,"refTime":"2025-12-22T09:00:00:Z","depth":0,"parameterNumber":3,"parameterNumberName":"V-component_of_WINDS"},"data":[0,0,0,0,0,0,0,0,0,0,0,0,0,0,0,0,0,0,0,0,0,0,0,0,0,0,0,0,0,0,0,0,0,0,0,0,0,0,0,0,0,0,0,0,0,0,0,0,0,0,0,0,0,0,0,0,0,0,0.2465,0.2465,0,0.2523,0.2524,0.2525,0.2538,0.2537,0.2537,0.2536,0.2599,0.2601,0.2603,0,0,0,0,0,0,0,0,0,0,0,0,0,0.2366,0.2368,0.2465,0.2465,0.2466,0.2523,0.2524,0.2525,0.2538,0.2537,0.2537,0.2536,0.2599,0.2601,0.2604,0,0,0,0,0,0,0,0,0,0,0,0,0,0.2415,0.2368,0.2464,0.2479,0.2481,0.2523,0.2524,0.2525,0.2538,0.2537,0.2537,0.2536,0.2598,0.2601,0.2604,0.2636,0,0,0.2613,0.2615,0,0,0,0,0,0,0,0,0.2412,0.2419,0.2476,0.2478,0.2481,0.2522,0.2512,0.2562,0.2538,0.2516,0.2536,0.2536,0.2574,0.2579,0.2592,0.2639,0.2641,0.2614,0.2615,0.2617,0.2618,0,0,0,0,0,0,0,0.2409,0.2416,0.2488,0.2477,0.248,0.2484,0.249,0.2522,0.2548,0.2518,0.2519,0.2526,0.2575,0.2589,0.2593,0.2642,0.2614,0.2616,0.2618,0.2619,0.2718,0.2719,0,0,0,0,0,0,0.2403,0.2413,0.2486,0.249,0.2444,0.2486,0.2493,0.251,0.2548,0.2553,0.2526,0.2526,0.2584,0.259,0.2596,0.2636,0.2617,0.262,0.2621,0.2718,0.2719,0.2719,0,0,0,0,0,0,0.24,0.2409,0.2484,0.2452,0.2462,0.2488,0.2507,0.2511,0.2525,0.2554,0.2559,0.2535,0.2584,0.2591,0.2626,0.2638,0.2621,0.2624,0.2717,0.2718,0.2719,0.2716,0,0,0,0,0,0,0.2398,0.2408,0.242,0.2452,0.2463,0.2512,0.2508,0.2513,0.253,0.253,0.2564,0.2569,0.2584,0.2621,0.2629,0.2642,0.2626,0.2716,0.2717,0.2719,0.2715,0.2717,0.2719,0,0,0,0,0,0.2394,0.2418,0.2421,0.2429,0.2479,0.2512,0.2519,0.2535,0.253,0.2543,0.2562,0.2568,0.2635,0.2624,0.2633,0.2648,0.2715,0.2717,0.2719,0.2715,0.2717,0.2719,0,0,0,0,0,0,0.2388,0.2422,0.2426,0.246,0.2483,0.2515,0.2531,0.2537,0.2562,0.2562,0.2581,0.2589,0.2622,0.2638,0.2625,0.2681,0.2675,0.2679,0.2669,0.2672,0.2673,0.2669,0.2629,0,0,0,0,0,0.239,0.2414,0.2443,0.2471,0.2482,0.2504,0.252,0.253,0.2555,0.2565,0.2586,0.2611,0.2638,0.2656,0.2682,0.2717,0.2726,0.2732,0.2734,0.2735,0.2738,0.2759,0.2762,0.2725,0.2725,0.2725,0,0,0.2396,0.2417,0.2432,0.247,0.2489,0.2514,0.2512,0.2539,0.2558,0.2569,0.2603,0.2619,0.2648,0.2683,0.27,0.2698,0.275,0.2737,0.2738,0.2741,0.2761,0.2764,0.2768,0.2726,0.2726,0.2726,0,0,0.2419,0.2438,0.2463,0.2481,0.251,0.2524,0.253,0.256,0.2572,0.2605,0.2614,0.2637,0.2683,0.2703,0.272,0.275,0.2756,0.2758,0.2767,0.2787,0.279,0.2793,0.2804,0.2808,0.276,0.276,0.276,0,0.2423,0.2461,0.2475,0.2501,0.2518,0.2528,0.2554,0.2571,0.2607,0.2619,0.2616,0.2673,0.2693,0.2734,0.2741,0.2753,0.2761,0.2755,0.2788,0.2791,0.2794,0.2805,0.2809,0.2761,0.2761,0.2761,0.2761,0,0.2464,0.249,0.2507,0.254,0.2559,0.2584,0.2604,0.2621,0.2629,0.2644,0.2678,0.2702,0.2734,0.2744,0.2753,0.2786,0.2784,0.2784,0.2779,0.2797,0.2808,0.2812,0.2761,0.2761,0.2761,0.2761,0,0,0.2487,0.2527,0.2533,0.2548,0.2579,0.26,0.2626,0.2656,0.2671,0.2695,0.2718,0.2756,0.2756,0.2775,0.2785,0.2803,0.2826,0.2801,0.2802,0.2806,0.2864,0.2865,0.287,0.2829,0.283,0.2831,0.2862,0,0.2515,0.2562,0.2575,0.2615,0.2639,0.2648,0.2671,0.2693,0.2707,0.2731,0.2747,0.2774,0.2772,0.2783,0.28,0.2819,0.2838,0.2817,0.2853,0.2854,0.2847,0.2875,0.2876,0.2905,0.2867,0.2867,0.2868,0,0.2555,0.2579,0.262,0.2648,0.2659,0.2679,0.2707,0.2729,0.2754,0.2763,0.2783,0.2792,0.2821,0.2813,0.2853,0.2839,0.2854,0.2865,0.2867,0.2872,0.2863,0.2883,0.2914,0.2919,0.2875,0.2874,0.2874,0,0.2569,0.2611,0.2641,0.2654,0.2687,0.2701,0.2715,0.274,0.2757,0.2781,0.2793,0.2821,0.2836,0.2858,0.2875,0.2868,0.2914,0.2908,0.2924,0.2924,0.2935,0.2935,0.2971,0.2942,0.2942,0.2942,0.2942,0,0.26,0.2626,0.2648,0.2667,0.2696,0.2711,0.2739,0.2754,0.2776,0.2798,0.2807,0.2829,0.2849,0.2873,0.2886,0.2918,0.2925,0.2934,0.2938,0.2934,0.2933,0.2946,0.2945,0.2943,0.2943,0.2943,0.2943,0,0.2622,0.2638,0.2671,0.2699,0.2706,0.2727,0.2751,0.277,0.2784,0.2812,0.282,0.2842,0.2871,0.2889,0.2926,0.2935,0.2971,0.2973,0.2962,0.2964,0.298,0.2979,0.3028,0.3035,0.2999,0.3,0.3,0,0.2642,0.2661,0.269,0.2705,0.272,0.2744,0.2761,0.2776,0.2793,0.2823,0.2838,0.2867,0.2892,0.2937,0.2958,0.2986,0.299,0.3005,0.2995,0.2991,0.2992,0.2992,0.2994,0.3007,0.3008,0.3008,0.3008,0,0.2675,0.2682,0.2705,0.2731,0.275,0.2772,0.2793,0.2805,0.2824,0.2843,0.2872,0.2891,0.2927,0.2957,0.2987,0.3003,0.3009,0.3011,0.3017,0.3014,0.3008,0.3013,0.2968,0.301,0.301,0.301,0.301,0.301,0.2698,0.2716,0.2739,0.2764,0.2782,0.2801,0.282,0.2836,0.286,0.289,0.2898,0.2928,0.2953,0.2993,0.301,0.3034,0.3033,0.3041,0.3043,0.3045,0.3046,0.3002,0.304,0.304,0.304,0.304,0.304,0,0.2734,0.2748,0.2771,0.2801,0.2821,0.2822,0.2846,0.2863,0.2889,0.2911,0.2934,0.2967,0.2995,0.3017,0.3046,0.3062,0.3066,0.3069,0.3069,0.3073,0.3045,0.3038,0.3066,0.3066,0.3066,0.3066,0.3066,0.3066,0.2755,0.2785,0.2794,0.2833,0.2848,0.2877,0.289,0.2909,0.2926,0.2962,0.2985,0.2998,0.302,0.3051,0.3077,0.3082,0.3094,0.3097,0.3104,0.3078,0.3075,0.3072,0.3066,0.3099,0.3099,0.313,0.313,0.313]}]]